sat.trackr.live / text

‹ back to catalog

RADIO ROSTO (RS15)

NORAD 23439 · 1994-085A

PAYLOAD ACTIVE UNKNOWN

§ Identity

Operator
Country
CIS
Launch date
1994-12-26
Launch site
TYMSC
Launch vehicle
Mass (kg)
RCS (m²)
0.62

Purposes: comms

External: N2YO · Heavens-Above · Gunter

§ Orbital elements

Epoch: 2026-09-20T04:34:32.320704Z

Period
127.71 min
Inclination
64.8154°
Eccentricity
0.0159270
Mean motion
11.27583932 rev/d
Perigee alt
1,888.5 km
Apogee alt
2,156.1 km
Semi-major
8,400.5 km
B*
3.2523e-5
RAAN
149.5686°
Arg perigee
346.8269°
Mean anomaly
12.8520°
Rev number
30,661

§ Raw data

RADIO ROSTO (RS15)1 23439U 94085A   26263.19065186 -.00000041  00000+0  32523-4 0  99962 23439  64.8154 149.5686 0159270 346.8269  12.8520 11.27583932306617

JSON: /api/v1/satellites/23439 · /tle

For live sub-satellite position, see the globe view (requires WebGL).

§ Visibility from observer

Set your observer location to see the next 7 days of passes ≥ 10°. The values pass through the URL so the page stays shareable.

No JS? Fill the form by hand. The geolocation button needs JavaScript.

§ Radio — SatNOGS DB

ModeDescriptionDownlinkUplink
CW Mode T TLM 1 29.353 MHz
CW Mode T TLM 2 (inactive) 29.399 MHz
USB V/T (Mode A) Transponder (inactive) 29.354 MHz–29.394 MHz 145.858 MHz–145.898 MHz

3 transmitters · refreshed weekly from db.satnogs.org